[[{"header":{"parameterUnit":"m.s-1","parameterCategory":1,"la1":30.2991,"la2":30.254,"lo1":-89.0895,"lo2":-89.0444,"dy":0.0017,"dx":0.0017,"nx":28,"ny":28,"refTime":"2024-08-11T09:00:00:Z","depth":0,"parameterNumber":2,"parameterNumberName":"U-component_of_WINDS"},"data":[0,0,0,0,0,0,0,0,0,0,0,0,0,0,0,0,0,0,0,0,0,0,0,0,0,0,0,0,0,0,0,0,0,0,0,0,0,0,0,0,0,0,0,0,0,0,0,0,0,0,0,0,0,0,0,0,0,0,-2.7414,-2.7414,0,-2.7418,-2.7418,-2.7418,-2.7296,-2.7292,-2.7289,-2.7286,-2.7292,-2.7295,-2.7298,0,0,0,0,0,0,0,0,0,0,0,0,0,-2.7303,-2.7306,-2.7414,-2.7414,-2.7414,-2.7418,-2.7418,-2.7418,-2.7296,-2.7292,-2.7288,-2.7284,-2.7291,-2.7294,-2.7298,0,0,0,0,0,0,0,0,0,0,0,0,0,-2.7333,-2.7306,-2.7414,-2.7354,-2.7348,-2.7418,-2.7418,-2.7418,-2.7297,-2.7292,-2.7287,-2.7283,-2.7289,-2.7294,-2.7299,-2.7426,0,0,-2.7313,-2.7315,0,0,0,0,0,0,0,0,-2.7332,-2.7338,-2.7363,-2.7358,-2.7352,-2.7351,-2.738,-2.7421,-2.7298,-2.7317,-2.7286,-2.728,-2.7315,-2.7318,-2.7329,-2.7426,-2.7427,-2.7314,-2.7317,-2.7319,-2.732,0,0,0,0,0,0,0,-2.733,-2.7337,-2.7415,-2.7363,-2.7357,-2.7327,-2.7326,-2.7387,-2.7344,-2.7315,-2.7306,-2.7308,-2.7312,-2.7325,-2.7328,-2.7427,-2.7314,-2.7318,-2.7321,-2.7323,-2.7626,-2.7631,0,0,0,0,0,0,-2.7336,-2.7336,-2.7415,-2.7415,-2.733,-2.7333,-2.7332,-2.7356,-2.7342,-2.7336,-2.7312,-2.7302,-2.7319,-2.7323,-2.7328,-2.7474,-2.7319,-2.7323,-2.7326,-2.7621,-2.7627,-2.7633,0,0,0,0,0,0,-2.7334,-2.7344,-2.7415,-2.7373,-2.738,-2.734,-2.7369,-2.7359,-2.7372,-2.734,-2.7332,-2.7333,-2.7315,-2.7322,-2.7402,-2.7473,-2.7325,-2.733,-2.7615,-2.7623,-2.763,-2.7769,0,0,0,0,0,0,-2.7331,-2.7344,-2.7392,-2.7375,-2.7383,-2.7489,-2.7373,-2.7363,-2.738,-2.7368,-2.7358,-2.7352,-2.7312,-2.7396,-2.7407,-2.7477,-2.7333,-2.7608,-2.7618,-2.7628,-2.7758,-2.7781,-2.7801,0,0,0,0,0,-2.7328,-2.7432,-2.7395,-2.7405,-2.7442,-2.7493,-2.7498,-2.7449,-2.7387,-2.7434,-2.7414,-2.7352,-2.7464,-2.7405,-2.7416,-2.7489,-2.7604,-2.7616,-2.7627,-2.7749,-2.7777,-2.78,0,0,0,0,0,0,-2.7459,-2.7429,-2.7387,-2.7489,-2.7495,-2.7473,-2.7531,-2.748,-2.7504,-2.7491,-2.743,-2.7429,-2.7519,-2.7512,-2.7447,-2.7611,-2.7523,-2.7537,-2.7611,-2.7638,-2.7658,-2.7657,-2.7337,0,0,0,0,0,-2.75,-2.7544,-2.7515,-2.7608,-2.7613,-2.7572,-2.7593,-2.7555,-2.7558,-2.756,-2.7545,-2.7551,-2.7587,-2.7612,-2.7644,-2.7757,-2.7753,-2.7813,-2.7834,-2.7852,-2.7864,-2.7922,-2.7948,-2.7671,-2.7671,-2.7671,0,0,-2.7585,-2.7574,-2.7605,-2.7634,-2.7634,-2.768,-2.7575,-2.7629,-2.7663,-2.7568,-2.7642,-2.7632,-2.7635,-2.7732,-2.7774,-2.7729,-2.794,-2.7867,-2.7881,-2.7884,-2.7937,-2.7963,-2.7986,-2.7679,-2.7678,-2.7677,0,0,-2.7763,-2.776,-2.7835,-2.7837,-2.7837,-2.7809,-2.7827,-2.7813,-2.7802,-2.7875,-2.7805,-2.7845,-2.7909,-2.7913,-2.7923,-2.8102,-2.8046,-2.8114,-2.8224,-2.8281,-2.8302,-2.8321,-2.8383,-2.8406,-2.8128,-2.8128,-2.8128,0,-2.7868,-2.7935,-2.7881,-2.7939,-2.7953,-2.7869,-2.7945,-2.7949,-2.7961,-2.7972,-2.7922,-2.7999,-2.7995,-2.8091,-2.8134,-2.8147,-2.8165,-2.8114,-2.8304,-2.8322,-2.8339,-2.8397,-2.8421,-2.8136,-2.8135,-2.8134,-2.8134,0,-2.8064,-2.8111,-2.8173,-2.8184,-2.8205,-2.8273,-2.8228,-2.8257,-2.8217,-2.8194,-2.827,-2.8262,-2.8289,-2.831,-2.8272,-2.84,-2.8372,-2.8314,-2.8224,-2.8374,-2.8428,-2.845,-2.8148,-2.8145,-2.8142,-2.814,0,0,-2.8324,-2.8303,-2.8327,-2.833,-2.8324,-2.836,-2.8423,-2.8449,-2.8474,-2.8485,-2.8535,-2.8591,-2.8536,-2.8549,-2.8511,-2.8561,-2.8701,-2.8496,-2.8495,-2.8533,-2.8839,-2.8881,-2.8908,-2.8664,-2.8668,-2.8671,-2.8838,0,-2.8494,-2.86,-2.8552,-2.8663,-2.8705,-2.8626,-2.868,-2.8683,-2.8664,-2.8697,-2.8676,-2.8715,-2.8642,-2.8648,-2.8694,-2.8674,-2.8761,-2.8662,-2.871,-2.8712,-2.8709,-2.8936,-2.8981,-2.9138,-2.8859,-2.8862,-2.8865,0,-2.8707,-2.8725,-2.884,-2.8824,-2.884,-2.889,-2.8909,-2.8943,-2.8944,-2.8926,-2.8939,-2.889,-2.895,-2.8863,-2.8945,-2.8878,-2.8895,-2.8888,-2.8893,-2.8894,-2.8796,-2.8941,-2.9188,-2.921,-2.8898,-2.8895,-2.8893,0,-2.8883,-2.8936,-2.901,-2.9016,-2.9001,-2.9037,-2.9033,-2.9029,-2.9047,-2.9064,-2.9075,-2.91,-2.9113,-2.9134,-2.9092,-2.9032,-2.918,-2.9089,-2.9165,-2.9167,-2.9198,-2.9196,-2.9449,-2.9214,-2.9214,-2.9213,-2.9213,0,-2.9077,-2.9149,-2.9088,-2.9134,-2.9213,-2.9158,-2.9238,-2.9225,-2.9222,-2.9263,-2.9197,-2.9238,-2.9181,-2.9216,-2.9185,-2.9256,-2.9264,-2.925,-2.924,-2.9255,-2.9256,-2.9263,-2.9251,-2.9219,-2.9218,-2.9217,-2.9216,0,-2.9285,-2.9247,-2.9323,-2.9302,-2.9298,-2.9357,-2.9338,-2.938,-2.9356,-2.941,-2.9419,-2.9382,-2.942,-2.9381,-2.9417,-2.9395,-2.949,-2.9466,-2.949,-2.9482,-2.956,-2.9552,-2.9824,-2.9856,-2.9603,-2.9606,-2.9608,0,-2.941,-2.9463,-2.9448,-2.947,-2.9469,-2.9507,-2.9524,-2.9473,-2.9494,-2.9499,-2.9539,-2.9572,-2.9594,-2.9659,-2.9635,-2.9662,-2.9636,-2.9729,-2.9639,-2.9651,-2.9634,-2.963,-2.9634,-2.9747,-2.975,-2.9752,-2.9754,0,-2.9635,-2.9613,-2.9641,-2.9662,-2.9685,-2.9699,-2.9709,-2.9731,-2.9678,-2.9705,-2.9742,-2.976,-2.9795,-2.9828,-2.9847,-2.9842,-2.979,-2.9783,-2.9802,-2.9816,-2.9826,-2.9819,-2.9537,-2.9777,-2.9774,-2.9773,-2.9771,-2.9771,-2.9803,-2.9846,-2.9841,-2.9874,-2.9875,-2.9885,-2.9922,-2.9903,-2.9933,-2.9956,-2.9925,-2.9971,-2.9969,-2.999,-2.9991,-3.0026,-2.9987,-3.0015,-3.0021,-3.0028,-3.0038,-2.9823,-3.003,-3.003,-3.0029,-3.0028,-3.0028,0,-3.0023,-3.0015,-3.0046,-3.006,-3.0086,-3.0033,-3.0041,-3.0066,-3.0106,-3.0109,-3.0132,-3.0175,-3.0205,-3.0184,-3.021,-3.0242,-3.0218,-3.0251,-3.0246,-3.0246,-3.0074,-3.0054,-3.0269,-3.0269,-3.0269,-3.0269,-3.0269,-3.0269,-3.0139,-3.0208,-3.0187,-3.0256,-3.0248,-3.0291,-3.0299,-3.0308,-3.031,-3.0359,-3.0384,-3.037,-3.0363,-3.0388,-3.0413,-3.0406,-3.0418,-3.0458,-3.0443,-3.0282,-3.0258,-3.0235,-3.0216,-3.0462,-3.0462,-3.0611,-3.0612,-3.0613]},{"header":{"parameterUnit":"m.s-1","parameterCategory":1,"la1":30.2991,"la2":30.254,"lo1":-89.0895,"lo2":-89.0444,"dy":0.0017,"dx":0.0017,"nx":28,"ny":28,"refTime":"2024-08-11T09:00:00:Z","depth":0,"parameterNumber":3,"parameterNumberName":"V-component_of_WINDS"},"data":[0,0,0,0,0,0,0,0,0,0,0,0,0,0,0,0,0,0,0,0,0,0,0,0,0,0,0,0,0,0,0,0,0,0,0,0,0,0,0,0,0,0,0,0,0,0,0,0,0,0,0,0,0,0,0,0,0,0,-3.1561,-3.1561,0,-3.1628,-3.1629,-3.163,-3.1621,-3.162,-3.1619,-3.1618,-3.1684,-3.1686,-3.1689,0,0,0,0,0,0,0,0,0,0,0,0,0,-3.142,-3.1423,-3.1561,-3.1561,-3.1562,-3.1628,-3.1629,-3.163,-3.1621,-3.162,-3.1618,-3.1617,-3.1683,-3.1686,-3.1689,0,0,0,0,0,0,0,0,0,0,0,0,0,-3.1484,-3.1424,-3.156,-3.1566,-3.1567,-3.1628,-3.1629,-3.163,-3.1621,-3.162,-3.1618,-3.1617,-3.1682,-3.1686,-3.169,-3.1749,0,0,-3.1703,-3.1704,0,0,0,0,0,0,0,0,-3.148,-3.1489,-3.1564,-3.1566,-3.1567,-3.1615,-3.1604,-3.167,-3.1622,-3.1601,-3.1618,-3.1616,-3.1662,-3.1667,-3.1684,-3.1752,-3.1755,-3.1703,-3.1705,-3.1707,-3.1708,0,0,0,0,0,0,0,-3.1476,-3.1486,-3.1587,-3.1565,-3.1567,-3.1564,-3.1571,-3.1616,-3.164,-3.1602,-3.1602,-3.161,-3.1662,-3.168,-3.1685,-3.1756,-3.1703,-3.1707,-3.1709,-3.1711,-3.1873,-3.1875,0,0,0,0,0,0,-3.147,-3.1482,-3.1585,-3.1589,-3.1519,-3.1568,-3.1576,-3.1601,-3.1639,-3.1643,-3.1612,-3.161,-3.1673,-3.168,-3.1687,-3.1757,-3.1707,-3.1711,-3.1714,-3.1871,-3.1874,-3.1876,0,0,0,0,0,0,-3.1467,-3.148,-3.1582,-3.1536,-3.1549,-3.1572,-3.16,-3.1603,-3.1621,-3.1646,-3.165,-3.1625,-3.1672,-3.1682,-3.1733,-3.176,-3.1713,-3.1717,-3.1869,-3.1872,-3.1875,-3.1899,0,0,0,0,0,0,-3.1463,-3.1479,-3.1502,-3.1536,-3.1551,-3.1628,-3.1602,-3.1606,-3.1628,-3.1626,-3.166,-3.1664,-3.1672,-3.1727,-3.1737,-3.1764,-3.172,-3.1867,-3.1871,-3.1874,-3.1895,-3.1902,-3.1907,0,0,0,0,0,-3.1458,-3.1506,-3.1503,-3.1516,-3.1581,-3.163,-3.1638,-3.1647,-3.1631,-3.1653,-3.167,-3.1663,-3.1755,-3.1733,-3.1744,-3.1773,-3.1865,-3.187,-3.1874,-3.1893,-3.1901,-3.1907,0,0,0,0,0,0,-3.1473,-3.151,-3.1508,-3.1568,-3.1596,-3.1628,-3.1658,-3.1655,-3.1688,-3.1684,-3.1693,-3.1701,-3.1753,-3.1768,-3.1742,-3.1831,-3.1808,-3.1814,-3.1819,-3.1826,-3.1832,-3.1826,-3.1724,0,0,0,0,0,-3.1484,-3.1521,-3.1551,-3.1601,-3.1616,-3.1634,-3.1656,-3.1661,-3.1689,-3.1701,-3.1721,-3.1748,-3.1783,-3.1805,-3.1839,-3.1898,-3.1904,-3.1923,-3.1929,-3.1934,-3.1939,-3.1969,-3.1978,-3.1889,-3.1889,-3.1889,0,0,-3.1505,-3.153,-3.1553,-3.1605,-3.1627,-3.1664,-3.1644,-3.1685,-3.1712,-3.1706,-3.1756,-3.1772,-3.1803,-3.1858,-3.1883,-3.1872,-3.1965,-3.1939,-3.1943,-3.1945,-3.1974,-3.1983,-3.199,-3.1892,-3.1891,-3.1891,0,0,-3.1563,-3.1587,-3.163,-3.1653,-3.1687,-3.1699,-3.1709,-3.1742,-3.1752,-3.1803,-3.1799,-3.1831,-3.1892,-3.1913,-3.1932,-3.1998,-3.1992,-3.2009,-3.2038,-3.2068,-3.2075,-3.2081,-3.2103,-3.2111,-3.2014,-3.2014,-3.2014,0,-3.1585,-3.1642,-3.1652,-3.1694,-3.1716,-3.1713,-3.1756,-3.1778,-3.182,-3.1835,-3.1823,-3.1898,-3.1919,-3.1978,-3.1994,-3.201,-3.2021,-3.2004,-3.2074,-3.208,-3.2086,-3.2106,-3.2115,-3.2016,-3.2016,-3.2015,-3.2015,0,-3.1666,-3.1706,-3.1737,-3.1779,-3.1805,-3.1847,-3.1862,-3.1887,-3.1889,-3.1902,-3.1953,-3.1978,-3.2016,-3.2031,-3.2033,-3.209,-3.2082,-3.2072,-3.2049,-3.2096,-3.2115,-3.2123,-3.2018,-3.2018,-3.2017,-3.2017,0,0,-3.1735,-3.1782,-3.1793,-3.1812,-3.1849,-3.1879,-3.192,-3.1959,-3.1979,-3.2008,-3.2042,-3.2093,-3.2084,-3.2105,-3.211,-3.2136,-3.2185,-3.2123,-3.2123,-3.2132,-3.2247,-3.2253,-3.2262,-3.2182,-3.2183,-3.2185,-3.2243,0,-3.1795,-3.1869,-3.1879,-3.1944,-3.1979,-3.1978,-3.2013,-3.2039,-3.2052,-3.2083,-3.2098,-3.2133,-3.2119,-3.2132,-3.2158,-3.2173,-3.2207,-3.2169,-3.2211,-3.2212,-3.2202,-3.2273,-3.228,-3.2334,-3.2251,-3.2253,-3.2254,0,-3.1875,-3.1907,-3.1975,-3.2007,-3.2022,-3.2054,-3.2089,-3.212,-3.2149,-3.2156,-3.218,-3.2182,-3.2223,-3.2199,-3.2255,-3.2229,-3.2247,-3.2257,-3.2259,-3.2262,-3.2235,-3.2275,-3.2352,-3.2359,-3.2266,-3.2265,-3.2264,0,-3.1915,-3.1976,-3.2024,-3.2041,-3.2079,-3.2101,-3.2118,-3.2145,-3.2167,-3.2198,-3.2212,-3.2246,-3.2265,-3.2291,-3.2301,-3.2284,-3.2356,-3.2333,-3.2362,-3.2361,-3.2375,-3.2374,-3.2454,-3.239,-3.239,-3.239,-3.239,0,-3.198,-3.2021,-3.2043,-3.2072,-3.2118,-3.2129,-3.2174,-3.219,-3.2214,-3.2246,-3.2247,-3.2276,-3.2288,-3.2319,-3.2328,-3.2371,-3.238,-3.2386,-3.2388,-3.2385,-3.2384,-3.2396,-3.2391,-3.2392,-3.2391,-3.2391,-3.2391,0,-3.2032,-3.2049,-3.2101,-3.2133,-3.2142,-3.2174,-3.2201,-3.2229,-3.2242,-3.2282,-3.2292,-3.2312,-3.2348,-3.2362,-3.2406,-3.2411,-3.2462,-3.2461,-3.2452,-3.2452,-3.2479,-3.2475,-3.2567,-3.2579,-3.2509,-3.251,-3.251,0,-3.2072,-3.2104,-3.2139,-3.2161,-3.2179,-3.2214,-3.2236,-3.2248,-3.2271,-3.2306,-3.2329,-3.2366,-3.2396,-3.2454,-3.2471,-3.2505,-3.2503,-3.2533,-3.2508,-3.2504,-3.2502,-3.2499,-3.2501,-3.2537,-3.2538,-3.2539,-3.2539,0,-3.214,-3.2146,-3.2179,-3.2215,-3.2242,-3.227,-3.2297,-3.2315,-3.2331,-3.2356,-3.2394,-3.2417,-3.2462,-3.2498,-3.2532,-3.2548,-3.2545,-3.2547,-3.2555,-3.2552,-3.2545,-3.2547,-3.2463,-3.2544,-3.2544,-3.2543,-3.2543,-3.2543,-3.2185,-3.2213,-3.2242,-3.2279,-3.2301,-3.2326,-3.2354,-3.2371,-3.2403,-3.2441,-3.2446,-3.2486,-3.2513,-3.2559,-3.2576,-3.2606,-3.2598,-3.261,-3.2613,-3.2615,-3.2616,-3.2542,-3.2613,-3.2613,-3.2613,-3.2613,-3.2612,0,-3.2251,-3.227,-3.2304,-3.2342,-3.237,-3.2368,-3.2398,-3.2421,-3.2456,-3.2482,-3.2512,-3.2554,-3.2589,-3.2609,-3.2643,-3.2664,-3.2663,-3.2672,-3.267,-3.2673,-3.2622,-3.2611,-3.2672,-3.2672,-3.2672,-3.2672,-3.2672,-3.2672,-3.2289,-3.2335,-3.2345,-3.2402,-3.242,-3.246,-3.2477,-3.25,-3.252,-3.2568,-3.2597,-3.2611,-3.2634,-3.267,-3.2701,-3.2706,-3.2718,-3.2727,-3.2731,-3.2683,-3.2677,-3.2671,-3.266,-3.273,-3.273,-3.2778,-3.2779,-3.2779]}]]